Time,TemperatureF,DewpointF,PressureIn,WindDirection,WindDirectionDegrees,WindSpeedMPH,WindSpeedGustMPH,Humidity,HourlyPrecipIn,Conditions,Clouds,dailyrainin,SoftwareType,DateUTC
2013-04-26 00:02:00,30.0,22.0,-100.00,SSE,165,1.0,2.0,72,-99.99,,,-99.99,,2013-04-26 06:02:00,
2013-04-26 00:11:00,30.0,22.0,-100.00,SE,140,1.0,1.0,73,-99.99,,,-99.99,,2013-04-26 06:11:00,
2013-04-26 00:20:00,28.0,22.0,-100.00,SSE,160,1.0,2.0,75,-99.99,,,-99.99,,2013-04-26 06:20:00,
2013-04-26 00:21:00,29.0,22.0,-100.00,SE,135,0.0,1.0,74,-99.99,,,-99.99,,2013-04-26 06:21:00,
2013-04-26 00:32:00,28.0,22.0,-100.00,SSE,160,1.0,2.0,75,-99.99,,,-99.99,,2013-04-26 06:32:00,
2013-04-26 00:41:00,28.0,22.0,-100.00,SSE,160,1.0,2.0,75,-99.99,,,-99.99,,2013-04-26 06:41:00,
2013-04-26 00:51:00,28.0,22.0,-100.00,SSE,160,1.0,2.0,75,-99.99,,,-99.99,,2013-04-26 06:51:00,
2013-04-26 01:01:00,28.0,22.0,-100.00,SSE,160,1.0,2.0,75,-99.99,,,-99.99,,2013-04-26 07:01:00,
2013-04-26 01:11:00,28.0,22.0,-100.00,SSE,160,1.0,2.0,75,-99.99,,,-99.99,,2013-04-26 07:11:00,
2013-04-26 01:50:00,29.0,22.0,-100.00,SSE,150,1.0,3.0,75,-99.99,,,-99.99,,2013-04-26 07:50:00,
2013-04-26 02:02:00,29.0,22.0,-100.00,SSE,150,1.0,3.0,75,-99.99,,,-99.99,,2013-04-26 08:02:00,
2013-04-26 02:11:00,29.0,22.0,-100.00,SSE,150,1.0,3.0,75,-99.99,,,-99.99,,2013-04-26 08:11:00,
2013-04-26 02:21:00,29.0,22.0,-100.00,SSE,150,1.0,3.0,75,-99.99,,,-99.99,,2013-04-26 08:21:00,
2013-04-26 02:32:00,29.0,22.0,-100.00,SSE,150,1.0,3.0,75,-99.99,,,-99.99,,2013-04-26 08:32:00,
2013-04-26 02:42:00,29.0,22.0,-100.00,SSE,150,1.0,3.0,75,-99.99,,,-99.99,,2013-04-26 08:42:00,
2013-04-26 03:50:00,26.0,19.0,-100.00,SE,145,0.0,2.0,75,-99.99,,,-99.99,,2013-04-26 09:50:00,
2013-04-26 04:03:00,26.0,19.0,-100.00,SE,145,0.0,2.0,75,-99.99,,,-99.99,,2013-04-26 10:03:00,
2013-04-26 04:12:00,26.0,19.0,-100.00,SE,145,0.0,2.0,75,-99.99,,,-99.99,,2013-04-26 10:12:00,
2013-04-26 04:23:00,26.0,19.0,-100.00,SE,145,0.0,2.0,75,-99.99,,,-99.99,,2013-04-26 10:23:00,
2013-04-26 04:33:00,26.0,19.0,-100.00,SE,145,0.0,2.0,75,-99.99,,,-99.99,,2013-04-26 10:33:00,
2013-04-26 04:42:00,26.0,19.0,-100.00,SE,145,0.0,2.0,75,-99.99,,,-99.99,,2013-04-26 10:42:00,
2013-04-26 05:50:00,25.0,17.0,-100.00,SSW,195,1.0,3.0,70,-99.99,,,-99.99,,2013-04-26 11:50:00,
2013-04-26 06:01:00,25.0,17.0,-100.00,SSW,195,1.0,3.0,70,-99.99,,,-99.99,,2013-04-26 12:01:00,
2013-04-26 06:11:00,25.0,17.0,-100.00,SSW,195,1.0,3.0,70,-99.99,,,-99.99,,2013-04-26 12:11:00,
2013-04-26 06:21:00,25.0,17.0,-100.00,SSW,195,1.0,3.0,70,-99.99,,,-99.99,,2013-04-26 12:21:00,
2013-04-26 06:32:00,25.0,17.0,-100.00,SSW,195,1.0,3.0,70,-99.99,,,-99.99,,2013-04-26 12:32:00,
2013-04-26 06:42:00,25.0,17.0,-100.00,SSW,195,1.0,3.0,70,-99.99,,,-99.99,,2013-04-26 12:42:00,
2013-04-26 07:50:00,29.0,17.0,-100.00,SE,145,1.0,3.0,61,-99.99,,,-99.99,,2013-04-26 13:50:00,
2013-04-26 08:01:00,29.0,17.0,-100.00,SE,145,1.0,3.0,61,-99.99,,,-99.99,,2013-04-26 14:01:00,
2013-04-26 08:11:00,29.0,17.0,-100.00,SE,145,1.0,3.0,61,-99.99,,,-99.99,,2013-04-26 14:11:00,
2013-04-26 08:21:00,29.0,17.0,-100.00,SE,145,1.0,3.0,61,-99.99,,,-99.99,,2013-04-26 14:21:00,
2013-04-26 08:32:00,29.0,17.0,-100.00,SE,145,1.0,3.0,61,-99.99,,,-99.99,,2013-04-26 14:32:00,
2013-04-26 08:42:00,29.0,17.0,-100.00,SE,145,1.0,3.0,61,-99.99,,,-99.99,,2013-04-26 14:42:00,
2013-04-26 09:50:00,46.0,17.0,-100.00,North,5,2.0,8.0,30,-99.99,,,-99.99,,2013-04-26 15:50:00,
2013-04-26 10:03:00,46.0,17.0,-100.00,North,5,2.0,8.0,30,-99.99,,,-99.99,,2013-04-26 16:03:00,
2013-04-26 10:12:00,46.0,17.0,-100.00,North,5,2.0,8.0,30,-99.99,,,-99.99,,2013-04-26 16:12:00,
2013-04-26 10:23:00,46.0,17.0,-100.00,North,5,2.0,8.0,30,-99.99,,,-99.99,,2013-04-26 16:23:00,
2013-04-26 10:33:00,46.0,17.0,-100.00,North,5,2.0,8.0,30,-99.99,,,-99.99,,2013-04-26 16:33:00,
2013-04-26 10:42:00,46.0,17.0,-100.00,North,5,2.0,8.0,30,-99.99,,,-99.99,,2013-04-26 16:42:00,
2013-04-26 11:50:00,50.0,18.0,-100.00,NE,40,2.0,9.0,27,-99.99,,,-99.99,,2013-04-26 17:50:00,
2013-04-26 12:02:00,50.0,18.0,-100.00,NE,40,2.0,9.0,27,-99.99,,,-99.99,,2013-04-26 18:02:00,
2013-04-26 12:12:00,50.0,18.0,-100.00,NE,40,2.0,9.0,27,-99.99,,,-99.99,,2013-04-26 18:12:00,
2013-04-26 12:22:00,50.0,18.0,-100.00,NE,40,2.0,9.0,27,-99.99,,,-99.99,,2013-04-26 18:22:00,
2013-04-26 12:33:00,50.0,18.0,-100.00,NE,40,2.0,9.0,27,-99.99,,,-99.99,,2013-04-26 18:33:00,
2013-04-26 12:42:00,50.0,18.0,-100.00,NE,40,2.0,9.0,27,-99.99,,,-99.99,,2013-04-26 18:42:00,
2013-04-26 13:50:00,53.0,20.0,-100.00,South,180,3.0,12.0,27,-99.99,,,-99.99,,2013-04-26 19:50:00,
2013-04-26 14:02:00,53.0,20.0,-100.00,South,180,3.0,12.0,27,-99.99,,,-99.99,,2013-04-26 20:02:00,
2013-04-26 14:11:00,53.0,20.0,-100.00,South,180,3.0,12.0,27,-99.99,,,-99.99,,2013-04-26 20:11:00,
2013-04-26 14:21:00,53.0,20.0,-100.00,South,180,3.0,12.0,27,-99.99,,,-99.99,,2013-04-26 20:21:00,
2013-04-26 14:32:00,53.0,20.0,-100.00,South,180,3.0,12.0,27,-99.99,,,-99.99,,2013-04-26 20:32:00,
2013-04-26 14:42:00,53.0,20.0,-100.00,South,180,3.0,12.0,27,-99.99,,,-99.99,,2013-04-26 20:42:00,
2013-04-26 15:50:00,48.0,18.0,-100.00,WSW,240,2.0,4.0,29,-99.99,,,-99.99,,2013-04-26 21:50:00,
2013-04-26 16:02:00,48.0,18.0,-100.00,WSW,240,2.0,4.0,29,-99.99,,,-99.99,,2013-04-26 22:02:00,
2013-04-26 16:12:00,48.0,18.0,-100.00,WSW,240,2.0,4.0,29,-99.99,,,-99.99,,2013-04-26 22:12:00,
2013-04-26 16:23:00,48.0,18.0,-100.00,WSW,240,2.0,4.0,29,-99.99,,,-99.99,,2013-04-26 22:23:00,
2013-04-26 16:33:00,48.0,18.0,-100.00,WSW,240,2.0,4.0,29,-99.99,,,-99.99,,2013-04-26 22:33:00,
2013-04-26 16:42:00,48.0,18.0,-100.00,WSW,240,2.0,4.0,29,-99.99,,,-99.99,,2013-04-26 22:42:00,
2013-04-26 17:50:00,47.0,19.0,-100.00,NE,45,2.0,9.0,32,-99.99,,,-99.99,,2013-04-26 23:50:00,
2013-04-26 18:01:00,47.0,19.0,-100.00,NE,45,2.0,9.0,32,-99.99,,,-99.99,,2013-04-27 00:01:00,
2013-04-26 18:11:00,47.0,19.0,-100.00,NE,45,2.0,9.0,32,-99.99,,,-99.99,,2013-04-27 00:11:00,
2013-04-26 18:21:00,47.0,19.0,-100.00,NE,45,2.0,9.0,32,-99.99,,,-99.99,,2013-04-27 00:21:00,
2013-04-26 18:32:00,47.0,19.0,-100.00,NE,45,2.0,9.0,32,-99.99,,,-99.99,,2013-04-27 00:32:00,
2013-04-26 18:41:00,47.0,19.0,-100.00,NE,45,2.0,9.0,32,-99.99,,,-99.99,,2013-04-27 00:41:00,
2013-04-26 19:50:00,41.0,19.0,-100.00,SSW,200,1.0,4.0,39,-99.99,,,-99.99,,2013-04-27 01:50:00,
2013-04-26 20:01:00,41.0,19.0,-100.00,SSW,200,1.0,4.0,39,-99.99,,,-99.99,,2013-04-27 02:01:00,
2013-04-26 20:11:00,41.0,19.0,-100.00,SSW,200,1.0,4.0,39,-99.99,,,-99.99,,2013-04-27 02:11:00,
2013-04-26 20:22:00,41.0,19.0,-100.00,SSW,200,1.0,4.0,39,-99.99,,,-99.99,,2013-04-27 02:22:00,
2013-04-26 20:32:00,41.0,19.0,-100.00,SSW,200,1.0,4.0,39,-99.99,,,-99.99,,2013-04-27 02:32:00,
2013-04-26 20:42:00,41.0,19.0,-100.00,SSW,200,1.0,4.0,39,-99.99,,,-99.99,,2013-04-27 02:42:00,
2013-04-26 21:50:00,32.0,23.0,-100.00,SSW,205,2.0,4.0,69,-99.99,,,-99.99,,2013-04-27 03:50:00,
2013-04-26 22:03:00,32.0,23.0,-100.00,SSW,205,2.0,4.0,69,-99.99,,,-99.99,,2013-04-27 04:03:00,
2013-04-26 22:13:00,32.0,23.0,-100.00,SSW,205,2.0,4.0,69,-99.99,,,-99.99,,2013-04-27 04:13:00,
2013-04-26 22:23:00,32.0,23.0,-100.00,SSW,205,2.0,4.0,69,-99.99,,,-99.99,,2013-04-27 04:23:00,
2013-04-26 22:33:00,32.0,23.0,-100.00,SSW,205,2.0,4.0,69,-99.99,,,-99.99,,2013-04-27 04:33:00,
2013-04-26 22:43:00,32.0,23.0,-100.00,SSW,205,2.0,4.0,69,-99.99,,,-99.99,,2013-04-27 04:43:00,
2013-04-26 23:50:00,29.0,23.0,-100.00,South,180,0.0,0.0,80,-99.99,,,-99.99,,2013-04-27 05:50:00,